Location: Brad
(46.1333°N, 22.7833°E)
Time: 21:13:21
(UTC+00:00)

Cosmos 2322 - Pass Details

Date: 03 February 2023
Orbit: 841 x 854 km, 71.0° (Epoch: 23 March)

Event Time Altitude Azimuth Distance (km) Brightness Sun altitude
Rises 17:10:28 0° 173° (S) 3,405 6.9 -16.5°
Reaches altitude 10° 17:13:10 10° 163° (SSE) 2,475 6.0 -17.0°
Maximum altitude 17:18:02 30° 104° (ESE) 1,484 4.4 -17.8°
Enters shadow 17:18:29 30° 95° (E) 1,496 4.4 -17.9°
